601  
ASUS44 KMOB 221712  
RWRMOB  
REGIONAL WEATHER ROUNDUP  
NATIONAL WEATHER SERVICE MOBILE AL  
1200 PM CDT TUE MAY 22 2018  
 
NOTE: "FAIR" INDICATES FEW OR NO CLOUDS BELOW 12,000 FEET WITH NO  
SIGNIFICANT WEATHER AND/OR S TO VISIBILITY
.  
 
* THESE STATIONS ARE PART OF THE UNIVERSITY OF SOUTH ALABAMA  
MESONET AND ARE NOT UNDER NWS OR FAA QUALITY CONTROL.
 
 
ALZ061>064-221800-  
COASTAL ALABAMA  
 
CITY SKY/WX TMP DP RH WIND PRES REMARKS
 
MOBILE REG APT PTSUNNY 87 69 54 W5 30.05F  
BROOKLEY FIELD FAIR 85 73 67 E7 30.06F  
USA CAMPUS* NOT AVBL  
DOG RIVER* N/A 82 73 74 SE7 N/A  
 
 
CITY SKY/WX TMP DP RH WIND PRES REMARKS
 
GULF SHORES FAIR 80 73 80 S7 30.05F  
 

 
 
ALZ051>060-221800-  
INTERIOR SOUTHWEST AND SOUTH CENTRAL ALABAMA  
 
CITY SKY/WX TMP DP RH WIND PRES REMARKS
 
GREENVILLE PTSUNNY 81 68 64 W8 30.04F  
EVERGREEN CLOUDY 82 71 69 N3 30.05F  
ATMORE* NOT AVBL  
ANDALUSIA/OPP FAIR 88 69 53 VRB3 30.04F  
ANDALUSIA* N/A 82 70 65 W3 30.06F  
FLORALA APT LGT RAIN 84 70 62 CALM 30.06F  
FLORALA* N/A 82 70 65 E5 30.76F  
 

 
 
FLZ001>006-221800-  
WESTERN FLORIDA PANHANDLE  
 
CITY SKY/WX TMP DP RH WIND PRES REMARKS
 
PENSACOLA CLOUDY 75 71 87 CALM 30.05F  
NAS PENSACOLA PTSUNNY 84 72 67 SE8 30.05S  
MILTON PTSUNNY 85 69 58 W6 30.04F  
WHTNG S FIELD PTSUNNY 87 71 58 N6 30.04F  
 
 
CITY SKY/WX TMP DP RH WIND PRES REMARKS
 
JAY* N/A 86 66 51 CALM N/A  
DUKE FIELD TSTM 77 72 85 NW9 30.05S  
CRESTVIEW LGT RAIN 83 69 62 W5 30.05F  
VALPARAISO PTSUNNY 85 71 62 S12 30.05S THUNDER  
DESTIN FAIR 84 71 65 S9 30.05S  
 

 
 
MSZ076-079-221800-  
INTERIOR SOUTHEAST MISSISSIPPI  
 
CITY SKY/WX TMP DP RH WIND PRES REMARKS
 
LEAKESVILLE* NOT AVBL  
AGRICOLA* N/A 84 68 58 W5 30.04F  
 

 
 
MARINE OBSERVATIONS  
 
STATION/POSITION TIME TEMP WIND PRES WAVE
 
AIR SEA DIR/SP/G HT/PER  
(UTC) (F) (DEG/KT/KT) (MB) (FT/S)  
PETIT BOIS ISLND 1642 80 80/ 3/ 4 1018.7S  
GRAND BAY 1545 80 160/ 8 1019.0S  
KATRINA CUT 1630 80 90/ 4 1018.3F  
CEDAR POINT 1630 79 50/ 2 N/A  
E DAUPHIN ISLAND 1600 79 120/ 3/ 3 1017.8S  
MIDDLE BAY LIGHT 1630 81 270/ 3 1018.0R  
USCG MOBILE BAY 1642 81 130/ 5/ 6 1017.5F  
STATE DOCKS 1642 83 80 1017.4F  
MEAHER PARK 1630 81 200/ 3 1018.0F  
WEEKS BAY 1545 84 1018.0R  
FORT MORGAN 1642 80 180/ 4/ 5 N/A  
12 S ORANGE BCH 1650 80 70/ 2/ 4 1017.9F 2/ 6  
PENSACOLA BAY 1642 82 82 10/ 5/ 9 1017.8F  
64 S DAUPHIN ISL 1650 82 70/ 4/ 6 1018.0R 2/ 5  
67 S FORT MORGAN 1630 82 1017.6S  
 

 
 
SELECTED LOCATIONS ACROSS THE REGION  
 
CITY SKY/WX TMP DP RH WIND PRES REMARKS
 
NEW ORLEANS PTSUNNY 85 72 65 NW5 30.04S  
GULFPORT PTSUNNY 84 73 69 SW6 30.04S  
PASCAGOULA AP FAIR 83 71 67 S9 30.05S  
PASCAGOULA* N/A 88 77 70 CALM 30.05S HX 100  
HATTIESBURG FAIR 87 70 56 VRB3 30.05F  
LAUREL FAIR 84 71 65 NE5 30.06F  
MERIDIAN FAIR 82 71 69 CALM 30.06F  
JACKSON PTSUNNY 85 70 60 VRB3 30.05F  
MONTGOMERY FAIR 81 72 74 S7 30.04F  
TROY FAIR 81 69 67 S7 30.06F  
ASHFORD* N/A 82 70 65 W3 30.06F  
DOTHAN PTSUNNY 82 70 66 S7 30.10F  
PANAMA CITY FAIR 79 73 82 SE9 30.06S  
 

 
 
 
 
CLICK HERE TO GO TO PREVIOUS BULLETINS.

The Nexlab AL Page
The Nexlab FL Page
The Nexlab MS Page Main Text Page